Regional Weather Roundup
Issued by NWS

Home | Current Version | Previous Version | Graphics & Text | Print | Product List | Glossary On
Versions: 1 2 3 4 5 6 7 8 9 10 11 12 13 14 15 16 17 18 19 20 21 22 23 24 25 26 27 28 29 30 31 32 33 34 35 36 37 38 39 40 41 42 43 44 45 46 47 48 49 50
634
ASUS43 KBIS 240510
RWRND

NORTH DAKOTA REGIONAL WEATHER ROUNDUP
NATIONAL WEATHER SERVICE BISMARCK ND
1200 AM CDT TUE OCT 24 2017

NOTE: "FAIR" INDICATES FEW OR NO CLOUDS BELOW 12,000 FEET WITH NO
SIGNIFICANT WEATHER AND/OR OBSTRUCTIONS TO VISIBILITY.


NDZ001>003-009>011-017-240600-
NORTHWEST NORTH DAKOTA

CITY           SKY/WX    TMP DP  RH WIND       PRES   REMARKS
WILLISTON      CLEAR     37  28  70 W10       30.41S
MINOT          CLEAR     40  29  64 W14       30.32R
MINOT AFB      CLEAR     37  29  71 NW12      30.30R
$$

NDZ018>021-031>035-040>046-240600-
SOUTHWEST NORTH DAKOTA

CITY           SKY/WX    TMP DP  RH WIND       PRES   REMARKS
BISMARCK       CLEAR     44  31  60 NW14      30.32R
DICKINSON      CLEAR     33  26  75 W7        30.38R
GARRISON         N/A     35  28  75 NW12      30.33R
HETTINGER ARPT CLEAR     39  26  59 NW15      30.41R
$$

NDZ004>008-012>016-024-026-027-054-240600-
NORTHEAST NORTH DAKOTA

CITY           SKY/WX    TMP DP  RH WIND       PRES   REMARKS
GRAND FORKS    CLEAR     36  30  79 NW14      30.17R
GRND FRKS AFB  CLEAR     34  28  78 N14       30.18R
DEVILS LAKE    CLEAR     31  27  85 N8        30.23R
$$

NDZ022-023-025-028>030-036>039-047>053-240600-
SOUTHEAST NORTH DAKOTA

CITY           SKY/WX    TMP DP  RH WIND       PRES   REMARKS
FARGO          PTCLDY    38  30  73 N17       30.13S
JAMESTOWN      CLEAR     39  28  64 NW18      30.20R
$$





USA.gov is the U.S. government's official web portal to all federal, state and local government web resources and services.